User: anonymous   Login
Location: Sunny Point
(33.0946°N, 85.0574°W)
Time: 14:38:46
(UTC+00:00)
Language:

UWE-3 - Orbit

View from above orbital plane
View from above orbital plane
View from above satellite
View from above satellite

Ground track
Ground track

The orbit data is extracted from the following two-line orbital elements,

1 39446U 13066AG  24193.55591262  .00004448  00000-0  49397-3 0  9991
2 39446  97.7819 142.7789 0061399 138.1749 222.4183 14.86335275572918
Epoch (UTC): 11 July 2024 13:20:30
Eccentricity: 0.0061399
inclination: 97.7819°
perigee height: 566 km
apogee height: 652 km
right ascension of ascending node: 142.7789°
argument of perigee: 138.1749°
revolutions per day: 14.86335275
mean anomaly at epoch: 222.4183°
orbit number at epoch: 57291

The dashed part of the orbit path shows where the satellite is in the earth's shadow,  

DLR